Theta_e
305 306 306 306 306 307 306 306 306 308 313 313 313 314 314 314 314 314 312 310 307 304 302 301 300 297 297 297 296 296 294 294 295 295 294 294 294 295 295 295 294 293 293
303 303 303 303 302 302 303 303 304 304 309 311 312 313 312 312 312 312 310 309 307 303 301 301 299 297 297 296 295 294 293 294 294 296 295 292 291 293 293 294 292 292 293
300 300 299 299 299 298 299 300 302 302 304 308 309 309 304 305 307 307 307 305 305 303 302 300 299 298 297 296 296 296 295 293 293 295 297 292 294 292 293 292 292 291 292
299 298 297 297 296 296 297 298 299 299 300 304 304 304 302 300 302 302 303 303 303 302 300 300 299 298 297 296 296 295 296 298 293 292 291 293 296 293 289 291 291 291 290
296 295 296 296 296 297 297 296 297 297 298 299 301 301 301 302 302 300 301 301 301 300 300 299 298 297 296 297 296 294 295 296 297 295 291 291 291 292 294 289 288 289 290
295 295 296 296 296 296 295 295 295 294 295 297 298 298 298 299 299 297 298 299 298 297 298 298 298 297 296 295 295 295 295 295 295 296 294 293 291 291 291 291 290 289 288
293 293 293 293 294 294 294 294 294 293 294 294 295 295 296 297 297 297 297 297 296 295 295 296 296 296 296 295 294 293 294 294 294 295 294 294 294 293 293 293 289 287 287
292 292 293 293 293 293 293 293 293 292 293 293 293 294 294 294 295 296 296 296 296 296 296 295 295 295 294 294 293 293 293 292 293 293 294 293 293 292 292 291 289 285 286
289 290 292 293 292 292 292 292 291 291 293 293 293 293 293 293 293 293 294 294 295 295 295 294 293 294 294 293 292 291 291 291 291 292 292 292 291 291 292 292 293 292 285
288 288 290 291 292 292 292 292 292 290 291 292 292 293 293 293 292 292 292 292 293 293 292 293 292 293 292 291 291 291 291 289 290 290 290 289 290 290 290 289 290 290 292
287 288 289 291 291 291 291 290 290 290 289 290 290 291 292 292 292 291 292 291 291 291 291 291 291 291 290 290 290 290 290 288 288 288 288 288 289 288 288 288 288 287 288
285 287 289 288 290 289 289 289 289 289 289 289 289 289 289 289 289 290 291 291 291 291 290 290 289 289 288 289 288 288 288 287 286 287 286 286 285 287 287 287 286 286 286
283 285 288 287 287 287 287 287 288 287 288 288 288 288 287 287 287 287 289 290 290 289 290 289 288 288 287 287 287 288 287 286 287 286 285 285 284 284 285 285 285 285 283
282 283 286 286 286 286 286 286 286 286 287 286 287 286 287 287 286 285 286 287 288 289 288 288 287 288 287 287 287 286 287 286 286 287 286 284 283 284 284 283 284 284 283
281 282 283 286 285 285 284 285 285 285 286 284 285 285 287 287 286 285 285 286 286 286 287 287 286 286 286 285 286 285 285 285 285 285 285 284 284 285 285 283 283 282 282
281 282 283 284 285 284 283 283 283 284 285 283 283 284 285 285 283 283 283 284 284 285 286 285 286 286 285 287 288 286 284 284 283 284 284 283 283 284 286 286 285 283 281
281 282 283 283 285 284 282 282 282 283 284 282 282 282 283 282 281 281 282 283 282 284 283 284 285 285 286 288 288 288 285 284 284 284 283 282 281 282 282 285 285 283 284
282 282 283 283 285 284 282 282 282 281 282 281 280 281 281 279 279 278 279 282 282 282 282 283 284 284 285 287 288 287 286 285 285 284 283 282 281 281 281 281 281 280 281
283 284 284 283 283 281 281 280 280 279 280 279 279 279 279 277 276 274 276 279 280 281 282 282 283 284 285 286 287 287 286 284 284 284 284 283 282 281 283 281 280 279 279
284 283 282 281 280 280 279 278 277 277 276 277 277 278 277 274 273 274 274 276 278 279 281 281 282 283 283 285 285 285 285 284 284 283 282 283 282 283 283 281 280 277 277
282 281 281 279 279 279 278 275 275 274 276 276 275 274 274 272 272 272 273 273 274 275 276 278 280 281 282 283 284 285 284 284 284 283 282 281 283 283 283 283 280 280 279
280 280 278 277 277 276 275 273 272 274 273 272 270 270 269 269 269 268 269 269 270 271 273 276 278 280 281 281 282 284 285 285 284 283 282 281 281 283 282 283 282 282 280
277 277 274 273 273 273 272 270 270 270 268 267 265 265 265 266 266 265 266 267 268 269 271 274 277 278 280 281 282 283 284 284 284 284 283 281 281 282 282 284 282 281 278
273 273 271 269 268 269 268 267 267 266 264 262 262 262 262 262 263 264 265 265 266 267 269 272 275 277 279 280 280 279 280 282 283 284 281 280 280 281 281 281 282 279 276
270 269 267 266 265 266 265 264 264 263 261 260 261 261 261 261 261 262 263 264 265 267 267 269 273 275 276 279 280 279 278 281 282 280 278 277 277 277 278 279 277 277 274
267 265 264 263 263 262 262 262 262 261 260 260 260 260 260 261 261 261 261 265 267 269 270 272 272 273 277 281 281 281 281 281 283 277 276 276 276 277 278 278 275 274 273
Wind_Speed
14 13 13 15 14 10 8 9 11 11 11 11 12 12 13 11 12 11 17 18 16 18 16 11 12 12 12 12 13 9 11 6 8 7 4 4 3 5 5 5 4 5 4
14 18 19 18 19 18 16 9 8 9 10 9 9 10 10 11 11 10 13 16 17 18 16 15 14 15 11 14 14 13 8 4 10 5 5 5 5 4 5 4 4 5 3
18 21 23 23 21 21 19 14 9 6 7 10 7 6 3 3 8 9 10 11 16 16 15 17 14 14 12 12 14 14 14 9 9 9 3 4 5 7 5 6 5 4 3
18 18 18 20 21 20 18 19 14 6 4 6 6 10 8 8 7 9 10 11 16 16 16 15 15 14 11 13 12 11 11 9 10 6 6 4 1 5 5 5 6 5 4
18 19 19 19 17 20 22 20 17 14 8 3 6 6 9 7 5 5 8 12 12 15 15 16 15 14 12 13 14 14 14 10 9 8 5 4 3 2 2 5 6 5 5
16 18 18 18 23 22 19 18 20 19 14 9 6 7 9 9 7 6 6 7 9 10 15 14 13 13 13 15 14 15 16 12 10 9 9 8 6 6 4 3 6 7 6
15 18 22 21 21 23 21 17 21 21 18 15 11 9 9 10 11 10 7 8 8 9 13 15 15 13 14 14 13 14 16 16 12 12 10 8 7 5 6 5 4 4 4
16 18 18 17 17 17 18 19 20 19 19 18 16 11 10 7 8 9 8 7 8 9 12 14 15 16 14 13 13 10 11 13 13 15 11 9 8 8 7 6 7 4 4
14 15 15 15 15 15 16 17 17 17 17 17 15 17 13 12 9 11 10 9 8 8 10 13 16 16 15 15 15 11 14 13 13 13 11 9 8 7 7 6 7 6 8
11 11 11 12 12 13 13 14 14 16 16 15 15 14 15 14 11 10 9 11 10 9 9 11 14 15 15 15 16 13 13 14 11 10 13 11 8 9 8 7 6 5 6
12 11 10 10 10 11 12 15 16 16 16 16 16 15 14 16 13 11 11 10 9 10 10 10 13 14 15 15 16 17 16 17 15 13 13 14 11 9 9 9 7 7 6
10 10 10 12 12 13 13 13 13 14 15 14 14 13 14 14 14 14 14 13 11 11 11 11 12 12 14 15 17 18 15 17 19 16 14 15 8 12 11 10 12 10 10
7 8 8 11 11 11 12 12 12 12 12 13 13 12 12 13 14 14 14 13 11 10 12 11 13 12 13 16 17 18 17 17 19 19 19 18 14 14 11 11 11 10 7
5 7 8 9 10 11 12 12 13 12 12 12 12 12 12 13 13 13 14 13 14 13 10 11 12 13 14 15 16 17 19 18 17 17 18 20 21 20 16 13 12 11 10
6 6 7 8 8 9 11 12 12 12 12 12 12 12 12 13 13 11 12 14 13 11 12 10 11 13 12 12 16 16 18 18 18 19 19 20 21 27 23 14 14 13 11
9 9 9 9 8 9 10 10 11 12 13 12 12 11 10 8 10 11 11 12 13 12 12 11 12 14 11 20 24 20 15 17 19 20 19 18 19 24 28 28 28 23 19
11 12 12 12 10 10 11 11 11 11 10 10 11 11 10 10 11 12 13 12 12 12 12 12 11 14 15 24 24 26 16 16 18 20 18 17 15 20 20 28 27 27 29
10 11 11 13 13 13 12 12 10 10 11 11 11 11 11 13 13 13 14 14 12 13 12 13 13 13 13 24 24 24 19 18 19 20 21 20 20 21 22 20 19 18 18
10 10 10 12 14 14 13 11 11 11 12 13 13 12 11 12 14 16 16 15 15 15 15 14 15 14 15 21 24 22 15 17 19 17 19 20 21 26 33 21 21 19 16
9 9 11 13 13 16 15 12 13 14 15 14 14 14 12 12 15 17 18 18 16 17 14 16 15 17 18 21 24 21 12 16 14 15 17 24 23 28 36 23 20 19 18
9 9 12 13 14 14 11 14 15 16 15 14 14 15 15 16 16 17 17 17 18 19 20 20 17 17 16 17 24 23 14 13 13 13 13 13 30 29 34 32 19 21 16
10 13 12 14 16 15 12 16 18 16 15 15 16 18 17 15 15 19 17 18 18 19 20 19 18 14 15 19 23 27 27 25 16 14 12 13 27 32 32 28 26 26 22
11 11 10 13 17 13 11 16 19 17 19 19 19 19 19 17 17 18 18 15 16 16 17 15 16 15 12 11 24 27 27 29 22 12 17 21 25 30 27 34 30 25 14
10 10 11 14 18 14 15 15 18 18 19 21 21 18 18 18 17 14 14 14 14 15 15 15 16 14 13 12 10 10 12 22 20 19 15 18 20 23 20 18 22 14 12
11 10 11 14 18 17 17 16 17 17 19 19 19 19 15 17 16 15 14 14 16 17 15 15 15 15 14 12 14 14 10 11 15 11 10 11 11 12 14 15 14 12 11
12 12 14 15 16 17 18 17 16 17 18 19 16 15 15 14 15 15 16 25 32 35 36 39 31 19 33 32 28 25 24 26 25 12 12 12 13 14 15 14 14 13 16
Wind_Direction
333 347 359 351 333 326 313 273 249 228 201 206 209 213 218 215 220 213 207 202 196 190 191 190 185 185 184 184 181 171 167 157 161 135 119 126 155 178 162 144 127 116 106
17 18 16 14 5 357 353 329 266 229 216 213 211 214 224 228 228 219 221 214 202 194 192 187 184 186 183 185 184 178 170 157 183 179 154 175 179 186 179 162 130 113 117
19 17 19 18 12 9 360 352 333 270 225 218 216 212 267 231 219 228 232 227 219 206 199 194 186 184 187 187 187 187 178 168 189 215 213 166 208 155 178 194 178 156 147
29 31 25 25 20 16 11 16 10 1 300 233 232 223 238 235 231 224 211 213 225 223 214 203 194 189 190 190 188 188 193 180 176 190 222 247 143 189 164 196 201 202 182
31 28 22 28 26 23 25 21 23 20 6 311 258 249 254 264 284 262 230 221 215 224 218 213 205 197 192 193 189 188 193 198 186 186 166 200 197 234 182 160 174 202 191
33 33 27 22 26 29 30 28 28 25 11 351 320 291 281 277 266 259 243 228 220 214 215 213 212 208 204 197 190 190 198 196 201 197 192 178 175 189 176 158 165 183 177
32 34 31 29 24 20 22 26 33 30 20 11 352 329 305 292 286 278 256 237 221 218 220 211 212 209 208 211 203 196 196 198 199 196 197 199 202 173 186 178 142 166 161
29 31 28 25 27 24 25 23 26 27 21 19 7 354 333 313 303 291 275 257 244 232 222 214 216 214 213 212 209 213 212 202 201 203 205 198 192 185 179 165 155 160 172
25 25 24 19 16 21 26 23 24 27 22 18 12 18 359 342 321 304 288 282 262 255 236 222 215 216 212 204 205 209 206 207 209 209 199 200 197 197 189 186 174 164 178
25 21 24 18 15 12 13 24 24 21 18 16 18 14 10 6 346 322 299 286 278 257 235 229 228 225 216 206 204 212 207 204 207 207 202 199 192 193 190 190 189 209 192
7 7 9 11 12 14 13 12 12 13 13 14 7 10 6 6 4 354 335 311 292 276 257 234 225 222 222 216 213 218 212 201 205 204 207 206 193 192 189 188 185 189 196
355 353 4 2 2 3 4 7 8 9 4 3 355 4 3 359 359 357 348 332 315 299 269 258 241 222 222 220 221 219 216 209 199 198 208 212 195 201 192 187 187 186 188
4 351 355 356 356 356 354 355 357 1 358 356 351 352 357 354 356 348 342 338 327 294 287 264 254 238 228 224 223 219 223 226 216 199 195 198 192 204 198 199 184 179 172
359 1 344 342 344 345 345 346 346 353 354 346 347 351 353 346 342 339 340 342 332 316 286 261 259 251 243 232 228 225 225 218 220 220 210 199 194 197 196 194 197 178 174
347 339 326 316 325 325 325 332 337 340 339 337 337 341 339 338 335 334 331 329 328 321 310 295 264 257 248 245 233 226 228 225 220 217 210 211 204 203 195 189 188 180 179
325 326 319 310 304 318 316 315 315 322 327 326 323 322 320 320 326 326 323 318 320 324 321 306 283 270 254 248 241 231 224 227 222 223 219 211 203 205 201 200 195 187 181
322 321 319 316 307 309 315 307 309 313 305 305 310 313 316 315 318 318 315 309 311 313 308 299 281 271 265 257 246 236 230 226 226 224 219 213 207 201 199 206 201 200 200
308 316 315 314 314 310 307 305 301 298 295 290 297 300 308 311 316 313 308 302 305 301 296 292 286 276 266 264 258 245 235 230 232 229 225 214 206 199 196 190 197 201 202
292 304 310 309 307 306 308 302 293 294 289 287 296 295 302 303 308 307 305 301 299 295 292 286 283 274 269 263 262 253 240 237 236 232 232 224 214 202 199 192 194 191 196
284 310 315 311 305 313 318 308 300 298 294 294 291 291 290 292 292 295 296 297 292 286 283 280 274 271 269 261 256 256 246 243 235 231 235 226 219 204 200 197 193 196 187
290 305 303 301 304 312 317 302 300 295 300 300 296 293 289 287 288 288 286 288 288 288 286 281 272 264 256 257 256 247 250 245 239 229 222 222 217 209 207 202 200 201 172
307 315 311 307 308 315 317 303 296 306 307 303 293 289 290 289 288 285 283 281 280 278 275 275 276 269 262 248 249 246 238 247 240 231 223 217 212 208 205 203 202 200 176
312 319 310 303 302 313 310 300 300 310 304 299 294 294 293 290 286 282 281 280 276 271 272 270 268 268 261 251 247 245 243 244 246 222 219 211 207 209 204 206 194 191 180
316 323 319 307 301 311 307 300 302 304 301 296 296 297 294 293 287 280 277 274 271 271 270 269 266 266 263 253 241 234 241 244 246 222 213 198 198 196 195 202 192 192 180
316 317 309 299 297 306 301 298 299 299 295 293 293 292 289 286 286 277 276 272 268 269 274 271 274 268 260 255 251 240 231 225 226 187 181 180 181 197 198 195 177 173 167
317 308 302 298 297 298 299 299 298 296 294 292 291 288 289 286 283 282 280 271 277 277 274 271 264 264 267 263 260 258 248 244 232 185 190 186 182 194 196 188 173 164 160